Wind_Speed
19 20 20 20 20 21 22 23 24 24 24 24 25 25 24 24 25 25 25 24 23 24 24 24 24 24 23 23 23 23 22 22 22 22 23 24 24 23 23 22 23 22 22 22 22 22 23 25 26 25 23 22 21 20 20 19 19 20 21 22 23 23 22 18 11 9 15 20 22 24 22 20 19 17 16 17 19 20 20 20 20 20 20 19 19
18 19 19 19 20 21 22 23 24 24 24 25 25 24 24 24 24 25 24 24 23 23 24 23 23 23 23 23 23 23 23 23 23 23 23 24 24 23 22 22 23 23 23 23 23 23 22 22 23 25 26 25 23 22 20 18 17 18 20 20 22 23 24 23 18 12 12 17 21 23 22 22 23 22 21 21 22 23 23 23 23 23 23 22 21
18 18 18 19 20 21 22 23 23 24 24 24 24 24 25 25 25 25 25 24 24 23 24 24 23 23 24 24 24 24 24 24 24 24 25 26 27 27 26 25 24 24 24 25 25 26 26 25 22 22 22 23 25 24 22 21 20 20 21 22 23 24 24 24 22 17 14 16 20 22 20 20 22 23 23 22 22 23 23 22 21 22 23 23 23
17 17 18 19 20 21 22 22 23 23 23 24 24 25 25 25 25 25 24 24 24 24 24 24 24 24 24 24 24 23 23 23 23 24 24 24 25 25 25 26 26 26 26 27 27 27 28 27 24 23 21 20 21 22 22 23 24 24 23 23 23 24 25 25 24 22 18 16 19 21 21 21 22 22 22 20 20 20 21 21 20 21 22 23 23
17 18 18 19 20 21 21 21 22 22 22 24 24 25 26 26 25 24 24 24 25 25 25 24 24 24 24 23 23 23 23 23 23 24 24 23 23 23 23 24 26 27 28 29 28 28 28 28 27 26 24 21 18 18 19 20 22 23 22 21 22 23 24 24 25 24 22 19 19 20 20 20 21 22 22 21 19 18 19 20 20 21 22 23 24
18 19 19 20 21 20 20 21 21 22 23 24 24 25 26 26 26 24 24 25 25 25 25 25 24 24 24 24 24 24 24 24 24 25 25 25 25 25 25 25 24 24 25 26 26 25 25 27 28 29 28 26 22 18 18 17 17 18 20 20 21 23 23 23 24 25 25 23 21 20 20 20 21 21 21 19 19 18 18 19 20 21 22 24 24
20 20 20 20 20 20 20 21 22 23 24 24 24 25 26 26 26 25 25 25 26 26 25 25 25 25 25 24 24 24 24 25 25 25 26 26 26 27 28 27 25 24 24 24 23 23 23 23 24 25 26 27 26 24 22 21 20 21 21 21 22 23 24 24 24 25 25 23 21 20 19 20 22 22 21 20 19 19 19 19 19 21 23 23 24
21 21 20 20 20 21 21 21 22 23 24 24 25 26 26 26 25 25 25 25 25 25 25 26 26 25 25 25 25 24 24 25 26 26 26 27 27 27 28 28 27 26 26 26 26 26 26 25 23 22 22 22 22 23 23 23 22 23 23 23 22 22 24 26 26 24 23 21 20 19 19 19 21 22 22 19 17 18 20 19 19 21 22 23 23
22 21 21 20 21 21 21 22 23 23 24 25 25 26 26 26 26 26 26 26 26 26 26 27 27 27 27 26 26 26 26 26 26 26 27 27 28 28 28 27 27 26 26 26 26 27 28 28 28 27 24 21 19 19 20 21 22 23 24 24 23 22 22 22 24 23 22 20 18 18 17 17 19 20 18 18 21 21 21 19 19 21 21 20 21
22 21 21 21 21 22 22 22 22 23 25 25 26 27 27 27 27 26 26 27 28 28 28 28 27 28 29 29 28 28 28 28 27 26 27 27 28 29 28 28 27 26 26 26 26 27 28 30 31 32 30 27 24 22 22 23 24 25 26 27 26 24 21 21 20 20 20 19 18 17 14 15 20 21 18 20 24 25 21 18 18 20 17 16 18
22 22 22 22 22 23 23 22 23 24 25 25 26 27 28 28 27 27 28 29 29 29 29 29 28 29 30 31 30 30 31 30 28 27 27 27 27 28 29 28 28 28 28 28 28 28 28 30 31 34 35 35 33 30 28 27 27 27 28 30 29 27 24 22 21 20 19 19 20 19 16 16 20 22 21 22 23 25 23 21 20 18 14 12 12
22 22 23 23 23 23 22 23 24 25 26 26 26 27 28 28 28 29 29 29 29 28 28 29 31 31 31 32 32 32 33 32 28 27 27 27 27 27 28 29 29 30 29 29 30 29 28 28 29 32 35 38 39 38 36 34 32 30 30 32 32 30 28 26 25 24 22 20 19 20 20 19 20 21 22 22 21 21 23 22 20 18 17 16 14
22 23 23 23 23 23 23 24 25 26 26 26 26 27 27 28 29 29 29 29 27 27 27 28 29 29 29 31 32 33 34 32 28 27 28 27 26 26 27 28 29 31 31 31 31 30 29 28 27 28 31 34 36 38 39 39 37 36 35 34 33 32 30 29 29 28 28 25 21 20 22 21 20 21 22 22 20 18 19 20 21 20 19 19 21
22 23 23 23 23 24 24 25 25 26 27 26 27 27 27 28 29 29 29 28 27 27 28 28 28 27 27 28 30 32 33 32 28 26 27 26 25 24 25 26 27 30 32 32 32 32 31 29 28 27 28 29 32 34 36 37 37 36 36 35 33 32 30 30 30 29 30 29 25 23 23 20 18 19 20 20 20 19 19 20 20 20 21 21 23
22 23 23 23 24 25 25 25 26 26 27 26 26 26 26 27 28 28 28 27 27 28 28 27 28 29 28 28 29 31 34 33 29 26 25 25 23 22 24 26 27 28 30 31 32 32 32 31 30 29 27 27 29 31 33 35 35 34 34 33 32 31 31 31 30 29 28 28 26 26 26 24 21 20 18 14 14 16 16 17 17 16 16 17 18
22 22 23 23 24 25 25 26 27 27 27 26 26 26 25 26 27 27 27 27 27 27 26 26 28 30 30 29 28 30 34 33 29 26 24 23 22 21 23 25 26 27 29 30 31 32 32 31 31 31 29 29 28 28 28 31 33 33 33 32 31 30 31 31 29 28 27 26 26 26 27 29 27 26 24 20 17 14 12 13 15 13 12 11 13
21 22 23 24 25 26 26 27 28 29 28 27 26 25 25 26 26 25 25 26 26 26 26 26 27 28 30 30 29 30 33 34 31 26 23 21 19 20 21 23 24 26 27 28 30 31 31 31 32 32 31 31 30 28 27 27 29 31 31 31 30 30 30 29 28 27 26 26 27 27 27 29 29 28 27 25 21 17 13 13 14 14 12 10 9
21 22 24 25 26 27 27 28 29 29 29 28 27 26 25 26 25 24 23 25 25 25 26 27 27 27 28 29 29 29 30 31 29 23 19 18 16 17 19 21 22 24 26 27 28 30 31 31 32 32 32 33 32 29 27 27 28 28 28 28 28 29 29 28 27 26 26 26 27 27 27 28 28 27 25 24 22 20 18 17 16 16 15 12 10
21 23 25 26 27 27 27 27 28 29 29 28 27 27 26 25 24 22 22 23 24 25 25 26 28 29 29 28 28 28 27 26 25 21 18 16 14 13 16 19 21 22 23 24 25 26 28 30 31 32 32 33 33 30 29 28 29 29 29 26 25 27 28 28 26 26 26 26 26 26 24 24 25 25 25 25 23 22 21 20 19 18 17 15 14
22 24 26 27 27 27 27 27 28 29 29 28 28 27 26 24 23 22 22 23 23 24 24 25 27 28 27 27 26 26 25 23 23 23 22 22 22 19 13 14 19 21 21 21 21 21 23 24 26 27 29 31 32 30 29 29 30 31 30 27 26 26 27 27 27 26 25 25 25 24 22 22 22 23 23 23 22 22 23 23 22 22 20 18 17
23 25 25 25 26 27 28 28 28 29 29 28 28 27 25 24 23 23 23 23 23 24 25 25 25 24 24 24 23 23 23 23 23 23 23 23 24 25 22 16 14 15 16 17 18 20 21 22 22 21 21 23 26 28 29 29 31 32 31 31 29 27 25 26 27 25 24 24 23 21 20 20 21 22 22 22 21 21 22 23 24 24 23 22 20
23 24 24 25 27 28 29 29 28 28 28 28 27 27 26 25 24 23 23 23 23 25 26 25 22 22 22 21 20 21 22 22 22 22 22 23 23 23 24 23 21 19 16 16 17 17 19 21 23 22 21 20 21 23 26 28 29 31 32 32 30 27 24 25 25 24 24 24 22 20 19 20 21 22 22 22 22 22 21 21 22 24 25 26 25
22 23 24 26 27 29 29 29 28 28 28 27 26 26 26 25 23 23 22 22 22 23 23 21 20 22 22 19 19 21 21 21 21 21 21 23 24 23 23 23 23 22 19 19 19 19 20 20 20 21 22 22 20 20 21 24 26 27 28 31 30 26 25 25 24 23 23 23 22 20 20 21 22 24 24 24 23 22 22 21 20 21 24 26 25
22 24 25 26 27 29 29 29 28 27 26 25 25 26 26 24 23 22 21 21 21 20 19 18 20 20 19 18 19 20 21 21 20 19 20 23 24 24 24 24 23 22 21 21 21 22 22 21 20 20 19 20 21 20 20 21 22 21 22 27 29 25 24 26 25 22 22 22 21 21 21 23 25 26 26 25 23 21 22 21 20 21 23 23 22
23 25 25 26 27 28 29 28 27 25 23 23 24 24 24 23 22 22 21 20 20 19 17 17 19 18 16 17 19 20 20 21 21 20 21 24 25 24 25 24 23 22 21 22 23 23 22 21 20 19 18 18 18 18 18 20 21 20 18 20 26 25 24 26 25 23 22 21 21 21 22 24 26 26 25 23 21 20 21 21 21 21 21 21 21
25 25 25 26 27 27 27 27 25 24 22 22 22 21 21 22 21 21 20 19 19 18 16 17 18 16 14 16 18 18 20 22 21 22 23 25 26 26 26 25 24 22 22 23 23 23 22 21 19 18 18 18 18 18 18 18 20 20 18 17 24 25 23 25 25 23 22 22 23 23 24 25 25 25 24 22 21 21 22 23 24 23 22 21 19
24 25 25 26 26 24 24 23 23 23 23 22 21 20 20 20 20 19 19 18 18 17 15 16 17 14 13 16 17 18 20 21 21 23 25 26 26 26 26 26 24 22 23 24 24 24 23 21 19 18 17 17 17 17 17 18 18 17 16 16 24 27 26 26 26 25 24 25 25 25 26 26 25 24 23 23 23 24 25 27 27 25 24 22 20
22 24 25 25 23 21 21 21 22 23 23 22 21 21 21 20 20 19 19 19 19 17 16 17 16 13 14 16 16 17 18 18 20 23 25 25 25 26 25 25 24 22 22 24 25 24 21 18 16 14 12 12 12 11 11 13 16 18 16 15 20 26 28 28 28 26 26 26 26 26 25 25 25 25 25 26 25 26 28 29 28 27 25 23 19
22 23 23 22 21 20 19 20 21 23 23 22 21 20 20 20 20 20 20 19 18 18 18 18 15 15 16 16 16 16 17 18 21 24 25 25 24 24 24 23 22 21 21 22 21 18 15 13 13 12 12 13 12 12 12 10 8 10 13 14 16 19 23 25 26 26 26 25 24 24 24 24 25 26 27 26 25 27 29 29 27 27 26 23 19
22 22 21 20 20 19 19 20 22 22 22 22 22 21 19 18 17 18 18 17 16 16 16 16 15 16 18 17 16 16 17 20 23 23 23 23 23 23 22 20 18 18 19 17 13 11 12 13 13 14 14 14 13 13 13 13 12 10 6 6 9 13 17 19 20 22 24 25 25 24 23 23 23 25 25 24 23 25 28 29 27 26 25 23 19
20 21 20 20 20 18 18 20 22 22 21 21 21 22 22 20 18 16 15 17 18 17 15 14 15 17 18 18 18 18 18 21 22 22 22 22 22 22 21 16 14 16 17 13 10 12 14 14 13 14 15 13 13 15 15 14 13 14 13 10 7 5 7 11 11 12 15 18 21 23 22 22 22 24 24 23 22 23 25 25 25 26 25 23 20
19 21 22 21 19 17 17 18 20 21 21 20 19 20 21 22 21 19 17 17 17 17 16 16 18 18 18 18 19 20 21 22 21 21 21 21 21 20 17 13 14 16 16 15 15 16 15 14 13 14 15 14 14 15 15 15 15 14 14 13 13 11 8 6 5 5 6 8 12 16 20 22 23 23 24 24 23 23 23 23 23 24 23 21 19
19 21 22 21 19 17 17 17 19 20 20 20 19 18 18 19 21 22 21 20 18 17 16 17 19 20 19 18 19 21 22 21 20 20 20 20 21 19 13 11 14 17 17 17 17 16 15 15 14 15 15 15 16 16 15 15 15 15 14 14 14 14 13 11 8 7 6 6 7 10 16 23 25 23 22 24 24 24 24 23 22 22 20 17 17
16 18 19 18 18 18 17 16 18 19 19 19 18 18 17 17 18 19 21 22 22 21 21 21 21 21 20 20 21 22 22 21 19 19 20 21 20 16 11 11 15 19 21 21 18 16 16 16 16 16 17 17 17 17 16 16 16 16 16 16 15 14 13 12 10 8 8 9 9 9 11 19 24 23 21 23 23 22 22 22 21 20 18 17 17
14 15 15 15 16 16 15 15 16 18 18 18 18 17 17 16 16 16 17 19 20 21 23 25 24 22 19 20 23 23 22 21 20 20 21 22 20 15 14 16 19 21 23 24 21 19 17 16 16 17 18 18 18 18 17 17 17 17 17 17 16 16 15 13 12 10 9 9 9 9 9 13 21 24 24 23 22 21 20 21 21 21 19 19 19
12 13 13 13 13 14 15 15 15 16 17 18 17 16 16 15 14 15 16 17 17 19 21 24 24 21 20 21 24 25 23 22 21 21 22 23 21 20 20 21 20 19 19 21 21 19 18 16 17 18 18 19 19 19 19 18 17 17 17 16 16 15 14 13 12 11 9 8 7 8 8 9 16 22 24 24 23 23 22 22 22 22 22 22 21
10 11 12 13 14 15 15 14 13 14 15 15 15 16 15 14 13 14 15 16 17 18 20 22 23 24 24 26 27 26 24 21 20 20 22 23 24 25 23 19 17 17 18 18 18 19 18 18 17 18 19 20 20 20 20 20 18 17 17 16 15 14 12 11 11 10 8 7 5 5 5 6 10 16 21 22 22 22 23 23 23 21 22 23 23
8 9 11 13 15 15 14 12 12 12 12 13 14 15 14 13 13 13 14 15 16 17 19 20 21 22 25 26 27 25 24 23 24 26 26 27 27 26 23 20 18 18 18 17 17 18 18 18 18 19 20 21 21 21 21 21 19 18 17 16 15 14 12 10 9 9 8 7 5 4 3 4 5 9 14 19 21 21 21 22 22 20 20 22 23
7 7 10 13 13 12 11 11 10 10 11 13 14 14 13 13 13 13 14 15 16 17 18 19 19 20 22 23 25 25 24 25 26 27 26 26 26 24 22 21 20 19 18 18 19 19 19 19 19 19 20 22 22 21 21 23 22 18 16 16 16 15 13 11 9 9 8 7 6 4 2 2 3 5 9 13 16 18 19 20 20 21 21 21 21
7 7 9 11 11 10 10 9 9 9 10 12 13 13 13 13 13 13 14 14 15 16 17 17 18 19 19 20 22 22 22 21 22 22 22 23 23 23 22 22 21 20 19 20 20 21 20 20 20 20 21 22 23 22 21 23 24 20 17 16 16 15 14 12 10 8 8 6 5 4 2 0 2 4 7 9 11 14 16 17 17 19 20 20 19
7 7 9 10 9 9 10 9 8 8 9 10 11 12 12 12 12 12 12 12 13 15 16 16 17 18 17 17 18 19 18 18 19 20 20 20 21 21 22 21 21 20 20 20 21 21 21 21 20 20 21 22 23 23 22 22 24 23 20 17 16 16 15 13 11 10 8 6 5 4 3 1 2 4 6 8 10 11 13 14 15 16 17 18 19
8 8 8 8 8 9 9 9 9 8 8 9 9 11 11 12 12 12 11 12 12 13 14 15 16 17 17 16 17 17 17 17 18 18 19 19 20 20 21 21 21 20 19 20 21 21 21 21 21 20 20 21 23 23 23 22 23 23 22 20 18 17 16 14 12 11 10 8 5 3 3 1 2 4 7 9 10 12 13 14 14 15 17 18 19
8 7 7 7 7 9 10 10 10 9 9 8 9 10 11 11 11 11 11 11 11 12 13 14 15 16 16 16 16 17 18 18 18 18 19 19 19 20 21 21 21 20 20 20 21 21 21 21 21 20 19 19 21 23 22 21 21 21 22 22 21 19 17 15 13 11 11 10 7 4 2 0 3 5 6 8 11 12 14 14 15 16 17 18 19
8 7 6 6 7 9 10 10 10 10 9 8 8 9 9 10 10 10 10 10 11 11 11 12 13 15 16 16 17 17 18 18 17 18 18 18 19 19 20 20 20 20 20 21 21 22 22 22 22 21 20 19 19 21 22 22 21 21 23 24 23 21 19 17 15 12 12 11 9 5 2 1 3 5 7 9 11 13 14 15 16 17 18 19 19
9 7 7 7 7 8 9 10 9 9 9 7 7 7 8 8 9 9 10 10 10 11 11 11 12 13 14 15 16 17 17 17 17 17 17 18 19 19 19 19 19 19 20 20 20 21 22 23 23 23 22 21 20 20 22 23 23 23 24 25 25 23 21 18 15 12 10 9 8 6 3 1 3 6 8 9 11 12 14 15 16 17 17 18 18
9 8 8 8 7 8 9 10 9 9 8 7 7 7 7 8 8 8 9 9 10 10 11 11 11 12 13 13 14 15 16 16 16 16 16 17 18 19 19 19 19 18 18 19 19 19 20 21 22 23 23 22 21 21 21 22 23 23 24 25 25 24 22 19 15 13 10 8 7 6 3 1 3 5 7 9 10 12 13 14 15 16 17 17 17
10 10 9 8 7 8 9 10 10 9 8 7 6 7 7 8 8 8 8 8 9 9 10 10 10 11 12 12 13 14 15 15 15 15 15 16 17 18 18 18 19 18 18 17 18 18 18 19 20 20 21 21 21 21 21 22 22 22 23 24 24 24 22 20 17 14 12 9 7 5 3 1 3 4 6 7 9 11 13 14 14 15 16 17 18
11 11 9 8 8 9 9 9 9 9 8 7 7 6 6 7 8 8 7 8 8 8 9 10 10 10 11 11 12 13 14 14 14 14 14 15 16 17 17 17 17 18 18 17 17 17 17 18 18 18 19 19 20 21 21 21 21 21 22 22 22 22 21 19 18 16 14 11 8 7 5 3 3 4 5 8 9 11 13 14 14 15 16 17 18
12 12 11 10 10 9 9 10 10 10 9 8 7 7 5 6 7 7 7 8 8 8 8 9 10 10 10 11 12 12 13 14 14 14 14 14 15 16 17 16 16 16 16 17 17 17 17 17 17 18 17 18 18 19 19 19 20 20 21 21 20 19 18 18 17 16 15 12 10 9 7 5 4 4 5 7 8 10 11 12 13 15 16 17 18
14 13 12 11 11 10 10 10 11 11 10 8 8 7 6 6 6 7 7 8 8 8 7 8 9 9 10 10 11 12 13 13 14 14 14 14 14 15 16 16 15 15 15 15 15 16 16 16 16 17 17 17 17 18 18 18 19 19 19 19 18 17 16 16 15 15 14 13 11 10 9 7 4 4 5 6 6 8 10 11 12 14 15 16 17
15 14 13 12 11 10 10 11 11 11 10 9 8 7 6 6 7 7 8 8 8 8 8 9 9 8 8 9 11 12 12 12 13 13 14 14 14 14 15 15 15 15 15 14 14 14 14 15 15 16 16 16 16 17 17 17 18 17 16 16 16 16 15 15 14 14 13 13 11 9 9 8 6 5 4 4 4 6 7 9 10 11 13 14 15
Wind_Direction
317 315 314 313 312 312 312 311 311 309 308 309 308 306 306 306 305 305 304 302 300 297 295 293 292 290 288 286 284 283 281 279 278 277 277 277 275 273 271 269 268 269 269 268 267 265 261 255 254 253 249 244 240 238 238 239 243 248 254 261 265 266 265 260 257 262 259 256 259 264 267 273 278 273 266 271 276 279 282 283 284 286 285 280 272
316 313 313 313 312 312 311 310 310 309 309 309 308 308 308 308 307 306 304 302 299 297 295 293 292 289 287 285 282 280 278 277 276 275 276 277 277 276 272 268 267 267 266 266 266 268 270 265 257 252 248 244 240 239 239 238 241 247 251 257 262 262 260 259 257 258 261 256 255 258 259 263 270 268 261 262 269 273 275 276 278 282 284 283 280
313 313 313 312 311 311 309 309 309 309 310 309 309 309 309 309 308 306 303 301 298 296 295 293 291 289 286 283 281 278 276 274 272 269 268 269 271 272 273 271 270 268 267 267 267 267 271 273 269 263 254 243 236 234 236 241 249 255 255 256 260 261 259 257 255 254 257 256 253 253 252 255 261 263 261 259 260 264 268 272 276 278 279 279 278
312 313 312 310 310 309 308 309 310 309 310 310 309 309 309 309 308 305 302 300 298 296 294 293 291 288 285 283 280 278 275 273 270 267 263 262 262 264 266 267 267 266 265 265 265 264 266 267 267 269 267 253 239 233 232 238 245 249 252 255 257 259 260 260 258 255 254 254 252 250 249 250 254 260 262 256 249 253 262 269 273 274 275 277 276
313 313 311 309 309 308 308 309 310 310 311 310 310 310 309 309 308 305 302 300 298 297 295 293 291 288 285 282 280 277 275 273 270 269 266 263 262 261 262 262 261 260 261 261 261 262 262 262 262 265 267 262 250 238 231 232 236 238 243 250 253 254 256 257 259 259 256 252 251 250 250 249 251 258 259 249 241 247 258 263 268 271 272 273 273
313 312 311 309 308 308 309 309 310 310 310 309 310 309 309 308 307 305 302 301 299 297 295 292 290 287 284 282 279 276 274 272 269 267 265 263 261 259 258 259 259 258 258 259 259 261 262 261 258 259 260 257 252 246 239 237 243 248 252 254 254 254 254 254 255 256 255 253 251 250 249 249 251 255 254 245 238 244 254 260 264 267 267 267 269
312 311 310 308 308 308 308 309 308 308 308 309 308 308 307 307 306 304 302 301 299 297 294 292 290 287 284 282 279 276 273 271 268 265 263 260 258 255 254 257 260 261 262 264 263 263 264 261 257 255 255 252 249 246 245 247 252 257 262 264 262 258 257 258 258 257 254 250 248 246 245 247 250 251 250 245 239 243 252 255 257 259 260 262 265
310 310 309 308 308 307 308 309 308 307 307 307 307 307 307 306 306 305 303 300 298 296 294 292 290 287 284 281 278 275 272 269 266 263 261 259 257 255 253 253 256 258 259 261 263 263 263 263 260 258 256 253 249 244 242 243 247 253 259 265 266 262 258 255 255 260 260 252 246 242 241 243 245 247 247 238 227 232 241 242 246 254 258 261 265
309 309 308 306 306 308 309 308 307 307 307 307 308 307 306 306 307 306 303 299 298 297 295 292 290 288 285 281 277 274 270 267 265 261 259 257 255 254 254 252 253 254 254 256 258 258 259 259 259 259 258 257 255 250 244 240 244 252 258 261 263 266 267 259 250 249 255 256 249 241 238 240 241 241 236 220 215 227 237 235 240 252 257 261 265
307 307 306 305 307 307 308 308 308 307 307 308 308 308 307 308 307 306 304 302 303 304 300 293 289 288 288 285 279 274 270 267 265 261 258 255 251 250 250 251 251 252 253 255 257 258 257 257 257 257 257 257 257 256 252 247 248 253 257 260 260 261 268 270 261 249 244 246 247 241 234 235 238 238 230 221 222 228 230 227 237 250 251 252 262
307 307 306 306 307 307 306 307 308 307 307 308 308 308 308 308 307 307 307 307 308 308 305 300 297 294 292 290 285 278 275 273 268 263 260 257 253 249 245 244 245 246 247 249 252 255 256 257 257 256 255 255 255 255 253 251 251 253 255 257 258 257 258 264 270 268 256 245 242 241 236 236 240 239 236 234 229 226 225 226 233 239 233 231 251
307 306 305 305 305 305 306 307 307 307 307 308 308 308 308 308 308 307 308 309 309 306 304 304 305 302 298 296 292 287 284 282 274 266 264 260 256 252 246 242 240 240 241 242 244 246 249 252 255 255 254 253 253 254 253 251 250 252 255 256 256 256 255 255 260 266 265 258 246 238 235 238 243 241 237 235 227 219 222 226 228 231 227 226 237
306 305 304 305 304 305 307 307 307 306 306 307 308 308 307 307 308 308 309 309 308 304 304 304 305 303 300 297 295 292 291 289 280 272 268 265 260 255 251 245 240 239 240 240 241 242 243 245 249 252 253 252 250 250 250 250 248 248 251 254 255 255 255 255 256 257 260 262 258 247 239 237 241 246 244 237 227 216 215 220 227 230 228 231 242
305 303 303 304 304 306 307 307 306 306 306 308 307 306 306 306 307 309 309 309 307 306 308 308 307 305 302 299 297 295 295 294 288 279 272 268 264 259 254 250 245 243 243 243 242 242 242 241 243 247 249 249 247 245 244 243 243 244 246 249 250 252 254 256 256 255 256 256 257 256 250 240 240 248 248 239 228 220 218 223 228 230 233 242 253
303 302 303 303 305 307 307 307 306 306 306 307 306 305 304 305 307 309 309 308 307 308 309 310 310 309 307 304 301 299 300 300 294 283 275 271 267 261 256 252 248 245 246 247 246 244 243 241 241 244 245 245 244 242 240 239 238 240 242 244 246 249 252 254 254 254 254 253 254 258 258 251 245 245 247 247 238 230 229 233 235 236 242 250 256
301 302 302 304 306 307 308 307 306 306 307 306 305 304 303 304 306 309 309 309 309 310 309 309 310 311 310 309 304 302 306 308 300 287 280 275 270 263 256 251 248 246 245 247 248 248 245 242 241 242 243 242 241 239 237 236 235 236 238 241 245 246 248 252 253 253 254 256 259 262 262 257 251 247 250 257 260 256 249 243 242 241 245 248 249
301 302 302 305 307 307 308 306 305 305 306 306 305 303 303 305 306 308 308 308 309 311 311 310 311 311 311 311 308 305 309 315 314 302 289 282 276 266 256 250 247 246 246 247 249 250 249 246 243 242 241 242 242 238 234 234 233 233 235 238 242 245 248 252 254 254 254 258 261 263 261 257 252 250 248 248 252 254 244 235 238 238 235 238 244
301 303 304 306 307 307 307 305 304 305 305 304 304 304 304 305 305 307 306 305 305 309 312 312 312 313 312 312 313 310 310 319 326 321 304 292 282 267 255 248 245 245 247 248 249 249 251 252 250 245 243 245 245 239 233 232 231 232 234 236 240 243 246 251 253 254 254 255 257 258 258 254 249 248 247 244 244 244 236 232 237 234 227 226 236
301 303 305 306 306 306 307 306 305 304 303 303 303 304 305 304 304 304 303 302 301 304 308 309 311 314 315 316 319 319 317 325 338 341 334 328 321 294 261 246 243 247 249 250 252 251 251 252 253 249 247 252 253 245 237 233 230 230 232 234 237 240 242 244 246 247 248 249 250 252 254 252 247 245 245 244 243 242 241 242 240 233 227 226 232
302 304 305 305 305 306 307 307 306 304 303 303 304 304 305 305 304 304 305 304 304 306 308 308 308 312 317 320 322 325 327 335 344 348 350 352 352 345 313 260 248 251 252 252 254 257 256 256 256 252 251 254 256 251 245 239 234 231 230 229 232 237 239 240 240 241 243 244 246 248 252 254 249 243 242 241 240 241 243 245 243 236 229 227 228
303 305 305 305 305 306 307 308 307 306 304 304 304 305 306 306 305 306 307 308 308 309 310 310 309 313 318 321 325 329 334 340 343 346 350 351 351 351 347 328 301 285 275 269 266 263 261 259 258 258 258 257 256 253 250 247 242 236 231 229 232 236 237 236 236 236 238 240 242 244 246 250 250 245 241 239 238 238 241 242 242 238 232 228 226
304 305 305 305 306 308 309 310 309 308 307 307 306 305 308 309 308 308 308 308 309 310 311 312 314 317 319 323 329 333 336 340 341 342 347 348 347 347 346 341 337 332 323 312 301 289 278 268 261 257 255 254 257 258 256 254 252 246 235 229 231 234 234 233 232 230 231 233 235 236 236 238 241 242 241 239 238 238 240 241 241 237 233 232 229
304 304 305 306 308 310 311 312 311 310 309 309 307 306 308 310 309 310 310 309 310 310 311 315 319 319 319 325 333 334 335 337 338 340 343 345 345 344 341 338 337 336 331 323 315 309 302 294 283 270 257 250 254 263 262 260 262 260 246 232 227 228 230 230 228 224 223 224 225 226 227 227 229 233 235 237 238 239 239 241 242 237 233 232 231
305 305 306 308 310 312 313 313 313 313 312 311 308 306 308 309 309 312 312 312 312 310 310 317 320 317 320 327 331 334 335 335 336 340 342 342 342 340 339 337 335 333 328 323 317 310 304 299 295 290 279 266 261 263 263 262 268 274 261 237 225 222 224 227 226 221 218 218 217 218 222 223 225 229 232 234 237 238 238 240 241 234 227 227 228
305 306 308 310 312 315 316 316 316 315 314 314 311 308 309 309 310 312 312 312 312 309 309 317 318 315 322 328 329 332 335 335 336 338 340 340 339 338 336 334 332 330 326 321 316 310 306 301 295 292 291 287 281 275 267 261 265 279 277 242 221 218 220 224 224 220 216 217 217 217 221 224 226 230 232 232 233 232 230 227 222 217 217 220 224
306 307 309 312 316 318 317 317 317 317 317 317 315 311 309 308 308 309 309 309 308 305 309 318 316 316 326 330 328 332 335 335 336 337 337 337 336 335 335 333 330 327 324 320 316 312 310 308 303 296 291 289 289 284 275 264 261 272 275 240 215 214 219 222 222 219 217 220 221 221 224 226 228 231 230 227 225 224 220 213 207 205 209 212 213
306 308 311 314 318 319 318 316 316 318 320 320 319 316 313 310 307 305 305 306 305 306 314 317 314 319 332 332 330 333 333 333 334 334 334 334 333 334 334 331 327 325 324 322 318 315 313 309 304 300 293 287 285 281 275 264 254 261 269 241 214 211 217 222 222 220 219 221 223 225 227 227 228 229 225 220 219 219 216 210 203 200 202 204 202
306 308 312 315 318 319 317 315 316 318 320 320 320 318 316 313 307 303 304 305 306 311 318 317 317 332 342 335 332 332 330 330 332 331 329 330 330 331 332 328 325 325 325 323 318 314 314 316 316 317 317 315 312 309 297 271 247 245 257 250 222 212 214 219 221 222 223 224 225 227 228 227 226 225 221 216 215 214 211 206 202 198 195 194 192
307 309 312 315 317 319 318 317 317 318 318 319 320 319 317 314 309 306 308 310 312 318 323 322 326 343 348 341 336 332 327 327 328 327 327 329 329 329 329 326 324 325 326 325 322 320 326 337 344 348 350 348 345 347 348 336 294 255 250 249 236 222 217 217 219 221 224 225 227 226 225 222 220 217 214 211 209 208 205 201 198 194 191 190 190
307 309 312 314 316 319 319 319 320 320 319 320 322 322 322 321 316 313 314 318 323 327 329 330 336 346 348 344 339 332 325 325 327 327 328 330 330 330 330 327 328 335 337 333 334 346 356 360 2 3 1 359 358 359 1 1 356 346 320 277 252 239 232 228 228 228 227 228 230 229 223 216 210 206 204 204 203 201 199 197 195 192 188 188 190
305 306 310 313 315 316 317 319 321 321 320 322 324 325 326 327 327 324 324 327 331 336 339 342 346 348 348 345 341 337 332 330 330 331 333 334 334 335 335 335 342 353 357 2 13 17 11 7 6 4 2 2 1 360 0 2 1 358 356 350 339 297 254 241 236 232 228 227 229 227 220 212 205 201 199 198 196 194 192 193 194 193 191 189 188
302 304 308 312 313 314 316 320 322 320 320 323 326 326 326 328 329 331 334 337 339 342 346 350 350 350 351 349 347 344 341 337 336 338 340 341 342 343 346 356 6 11 20 32 33 25 15 11 7 3 2 1 358 356 358 0 0 360 359 355 353 350 339 314 287 263 239 232 233 229 219 210 206 203 199 195 193 190 188 189 191 191 190 189 188
302 305 308 310 311 312 316 321 322 319 319 322 325 327 327 327 326 329 333 337 340 344 349 352 352 352 352 353 352 349 346 344 345 347 349 351 354 356 6 23 26 26 31 33 27 20 16 13 7 3 1 358 356 355 357 357 356 358 359 358 353 347 342 335 322 302 276 264 266 250 224 211 207 204 199 195 193 190 188 188 188 187 186 183 183
303 304 305 305 306 309 315 320 319 317 317 319 322 324 325 326 326 327 331 335 339 342 345 349 353 353 353 353 354 353 352 353 355 357 0 3 5 8 25 44 41 37 35 30 20 11 11 10 5 1 359 356 354 354 353 353 355 354 353 354 353 349 345 340 333 321 299 277 273 274 246 217 205 199 195 192 191 189 187 186 184 182 181 179 177
304 304 303 301 300 304 310 315 316 315 314 317 319 321 323 326 329 330 332 334 335 337 339 344 350 353 353 353 353 354 357 1 4 7 11 13 14 22 36 40 34 29 27 25 18 9 6 6 3 359 357 354 354 352 348 348 351 352 351 351 351 350 350 348 343 334 319 296 275 271 262 224 203 195 191 188 186 185 184 183 184 183 182 179 175
301 303 303 300 297 299 305 311 314 313 312 314 317 320 323 328 330 331 332 333 333 334 336 340 345 350 355 359 359 358 1 5 7 11 16 19 23 32 37 33 27 20 17 17 13 7 4 3 0 359 357 354 352 350 348 347 348 349 350 350 349 348 350 351 348 341 332 320 292 266 257 228 202 194 189 186 187 188 187 187 188 188 186 183 179
293 296 301 300 297 298 303 309 312 312 313 314 317 321 325 330 333 335 336 335 336 337 338 342 346 351 356 2 3 1 3 9 11 15 20 22 26 31 33 28 24 21 16 10 6 3 1 360 359 358 357 354 351 349 348 349 348 348 349 351 351 350 348 348 351 350 345 337 321 284 261 234 203 193 189 187 189 191 192 192 191 191 190 187 181
284 291 297 297 294 295 301 307 311 313 315 317 320 323 327 332 336 339 340 339 339 340 341 345 351 352 353 357 359 359 4 15 19 19 19 20 21 22 22 21 21 19 14 9 6 3 359 358 359 358 356 354 352 351 352 355 354 349 349 351 352 353 353 352 356 2 2 357 349 325 282 250 214 197 193 192 190 191 193 193 190 187 184 183 180
280 288 291 289 289 291 296 302 310 316 318 320 323 325 328 331 336 341 342 342 343 343 343 346 352 353 353 355 356 358 6 17 18 14 12 14 16 16 15 15 15 14 11 9 7 4 1 0 360 359 357 357 356 354 357 2 1 356 354 353 351 352 355 357 357 2 8 7 4 1 336 262 222 203 195 191 188 187 187 187 186 183 180 179 180
276 287 292 290 290 292 295 300 307 314 318 321 323 325 327 330 335 338 341 342 343 344 345 347 349 352 355 357 358 2 9 14 13 10 9 10 12 14 14 13 10 9 7 6 4 3 2 2 3 2 2 2 360 358 1 6 5 3 2 360 355 354 357 360 1 2 5 6 9 17 28 64 204 201 193 187 184 183 182 180 181 182 179 176 174
266 279 292 295 294 294 296 299 304 310 317 321 321 321 323 326 329 333 338 342 342 343 344 346 347 350 354 357 1 8 15 15 12 11 12 11 10 12 13 13 11 9 7 5 4 3 2 3 6 8 8 7 5 3 5 7 6 6 7 6 3 359 358 1 7 8 3 360 4 15 29 73 166 183 185 183 182 182 181 178 177 177 174 172 170
257 273 289 296 295 294 295 297 302 308 314 316 317 316 317 320 324 330 334 338 341 342 343 344 346 350 354 356 360 8 16 17 14 12 13 13 12 12 12 13 14 14 12 7 5 4 5 7 10 13 14 14 12 11 11 9 6 6 8 9 7 4 360 1 9 15 11 4 1 3 13 55 159 169 172 176 177 177 175 174 172 171 169 168 168
250 265 280 289 289 289 289 292 298 303 307 311 314 314 313 314 320 325 330 334 339 342 342 343 345 348 353 358 2 8 13 14 13 11 10 10 11 11 12 13 16 18 20 17 12 10 11 12 14 18 22 22 20 19 18 15 11 10 10 10 8 7 4 2 6 13 13 8 359 346 336 252 172 167 166 169 170 168 167 166 166 165 164 164 164
243 255 266 274 279 281 282 285 289 293 298 304 308 309 311 312 315 320 325 330 334 338 340 343 344 346 350 356 0 5 9 9 8 7 6 6 7 8 10 13 16 20 23 22 20 19 19 17 18 22 27 31 31 28 26 26 25 23 19 15 12 9 6 3 2 3 6 4 357 347 330 208 179 171 166 165 165 162 159 159 159 159 159 159 158
235 243 253 261 266 270 274 279 281 283 290 297 300 303 307 308 310 316 321 323 328 333 336 341 343 345 348 352 355 358 2 3 3 4 3 3 4 4 7 10 15 19 22 22 22 23 23 22 22 24 26 31 35 34 31 31 33 33 29 25 21 16 10 5 0 1 3 2 358 352 339 218 175 166 162 163 164 161 158 157 157 156 156 156 156
229 234 242 249 253 260 268 274 276 278 282 287 292 299 305 305 306 312 317 319 323 328 331 336 341 343 345 348 350 352 355 357 358 0 1 1 2 3 5 9 13 16 20 22 22 24 25 25 25 26 26 27 31 32 31 32 34 34 32 30 26 22 17 12 6 5 7 7 7 1 346 272 164 157 158 160 162 159 156 156 157 156 156 157 156
226 230 235 237 241 252 263 268 272 274 277 279 282 289 298 303 305 308 311 315 320 323 327 332 336 338 342 344 345 346 349 351 353 355 357 358 360 2 5 8 11 13 17 21 22 23 25 25 25 26 26 26 27 27 28 29 30 31 32 30 26 23 21 18 15 15 13 13 21 27 22 74 132 138 146 151 153 154 152 153 155 157 157 157 156
222 226 229 229 232 242 253 259 263 266 267 268 270 275 284 295 301 304 306 310 313 317 323 328 329 332 337 340 340 340 342 344 347 350 353 354 356 359 3 7 10 11 14 17 19 20 23 25 25 25 25 25 25 25 24 24 24 26 28 28 25 23 21 19 21 22 20 19 29 40 46 69 99 111 127 139 143 146 148 149 152 155 155 154 153
217 220 223 225 227 234 243 250 255 259 258 257 261 267 274 285 292 297 301 302 304 311 317 320 323 327 331 334 335 335 337 339 342 345 348 349 350 353 358 3 8 11 13 14 16 17 20 23 24 24 24 25 25 23 22 21 19 19 20 20 19 18 19 21 23 25 24 25 33 41 45 57 82 103 120 134 139 141 144 147 149 151 152 152 153
214 218 221 223 227 231 235 242 250 255 254 253 256 259 265 276 284 290 294 295 298 306 310 308 312 320 327 329 328 328 331 335 337 338 340 344 346 348 351 356 3 8 10 12 13 15 17 19 21 22 22 24 24 22 21 20 18 16 13 11 10 11 15 19 22 25 26 28 32 38 41 44 59 92 114 129 139 143 145 146 149 153 156 157 157
212 217 220 222 226 229 231 236 244 249 249 250 252 253 257 267 275 281 287 288 291 298 302 301 306 313 317 318 318 319 323 330 331 331 334 339 341 342 346 351 356 360 2 5 9 12 15 17 19 18 18 20 21 20 19 19 16 13 9 7 6 7 9 13 18 22 25 26 28 34 39 40 40 53 81 107 128 143 149 150 152 157 162 162 163
Height
839 837 835 833 831 829 827 825 823 822 820 818 816 814 812 810 808 806 804 802 801 798 796 795 793 791 789 788 787 786 785 784 783 782 781 780 779 779 778 777 776 776 775 775 775 775 775 774 774 774 774 774 774 774 774 774 775 775 775 776 775 776 776 776 774 772 772 773 773 772 773 773 773 773 774 774 774 775 775 775 775 775 776 776 776
837 835 833 832 830 828 826 823 821 819 817 815 814 812 810 808 806 804 802 800 799 796 794 792 791 789 787 785 784 783 782 781 781 780 779 778 777 776 776 775 774 774 773 773 773 772 772 772 771 771 771 771 771 771 772 772 773 773 773 774 774 774 775 774 773 771 770 771 771 771 771 772 772 772 772 772 773 773 773 773 773 773 774 774 774
835 833 831 830 828 826 824 822 820 817 815 813 811 809 807 806 804 802 800 798 796 794 792 790 788 786 785 783 781 780 779 778 778 777 776 776 775 774 774 773 772 772 771 771 770 770 769 769 768 768 768 768 767 768 769 770 771 771 771 772 772 772 772 772 771 769 768 768 769 768 769 770 770 769 770 770 770 771 770 770 771 771 771 771 771
833 831 829 827 826 824 822 819 818 815 813 811 809 807 805 803 802 800 798 796 794 792 790 788 786 784 782 780 779 778 776 775 775 774 773 773 772 772 771 771 770 769 769 769 769 768 767 766 765 766 766 765 764 765 765 767 768 769 769 770 770 769 769 769 769 767 766 766 766 766 766 767 767 767 768 767 768 768 768 768 768 768 769 769 769
831 829 827 825 823 822 819 817 816 813 811 809 807 805 803 801 799 797 795 793 791 789 787 785 783 781 779 778 776 775 774 773 772 771 770 770 769 769 769 768 768 767 766 766 766 766 765 764 763 763 763 763 762 762 763 763 765 766 766 767 767 767 767 767 766 765 764 763 763 763 764 764 765 765 765 765 765 765 765 765 766 766 766 767 766
829 827 825 823 821 819 817 815 813 811 809 807 805 803 801 799 797 795 793 790 788 786 784 782 781 778 776 775 773 772 770 770 769 768 767 767 766 766 766 765 765 764 764 763 763 762 762 761 761 761 761 760 760 760 760 761 762 763 764 764 764 764 764 764 764 763 762 761 760 761 761 761 762 762 763 763 762 763 763 763 763 764 764 764 764
827 825 823 821 819 817 815 813 811 809 807 805 803 801 798 796 794 792 790 788 785 783 781 779 777 775 773 771 770 769 767 766 765 764 764 763 763 762 762 762 761 761 760 760 759 759 759 759 759 758 758 758 757 758 758 758 759 760 761 762 762 762 761 760 760 760 759 758 757 758 758 758 759 760 760 760 760 760 761 761 761 761 762 762 761
825 823 821 818 817 815 813 811 809 807 805 802 800 798 796 794 792 789 787 785 783 780 778 776 774 772 770 768 767 765 764 762 761 760 760 759 759 759 758 758 758 757 757 757 757 757 756 756 755 755 755 754 754 755 755 756 757 757 759 760 760 759 758 757 757 757 756 755 754 754 755 756 756 757 757 758 757 757 758 758 758 759 759 759 759
824 821 819 816 815 813 811 809 807 805 802 800 798 795 793 791 789 787 784 782 779 777 775 773 770 768 766 764 763 762 760 758 757 756 756 755 755 755 754 755 754 754 754 754 754 754 753 753 752 752 752 752 752 752 752 753 754 754 756 757 757 756 755 754 754 753 753 752 751 751 752 753 753 753 754 754 754 754 755 756 756 756 757 757 757
822 820 817 815 813 811 809 807 804 802 800 798 795 793 790 788 786 784 782 779 776 774 771 769 767 765 762 760 759 757 755 754 752 752 751 751 750 750 751 751 751 751 751 751 751 750 750 749 749 749 749 749 749 749 749 750 750 751 753 753 753 753 753 752 750 749 749 748 748 748 749 749 749 749 750 750 751 751 752 753 753 754 756 756 755
821 819 816 814 811 809 807 805 802 800 798 795 793 790 788 786 783 781 779 776 773 771 768 765 763 762 759 757 755 753 750 749 748 747 747 747 746 746 746 746 747 747 747 747 747 746 746 746 745 745 745 744 745 745 746 746 747 748 749 749 749 749 750 749 748 747 746 745 744 745 745 745 745 745 747 747 748 748 749 750 750 751 753 754 753
819 817 815 812 810 808 805 803 800 798 796 793 791 788 786 783 781 778 775 773 770 767 765 762 760 758 756 753 751 748 746 744 744 743 742 742 742 742 742 741 741 742 742 742 741 741 741 741 741 741 740 740 740 741 741 742 743 744 745 745 745 745 745 745 745 744 743 742 741 741 741 741 742 742 743 744 744 745 746 747 747 748 750 751 750
818 815 813 811 809 806 804 801 799 796 794 791 789 786 784 781 778 776 773 770 768 765 762 760 757 755 753 750 747 744 742 740 740 739 738 737 738 738 738 737 736 736 737 737 737 736 736 736 736 736 736 736 736 736 736 737 738 740 741 741 740 740 740 741 741 741 741 740 739 738 738 738 739 739 740 741 741 742 743 744 745 745 746 747 746
816 814 812 810 808 805 803 800 797 794 792 790 787 784 782 779 776 774 771 768 765 762 759 757 755 753 751 748 744 741 738 736 736 735 734 733 733 734 734 733 732 732 731 732 732 731 731 732 731 730 731 731 731 731 732 733 734 735 735 735 735 735 735 735 736 737 737 737 736 735 735 736 736 736 737 738 738 739 740 741 742 743 743 744 744
815 812 810 808 806 804 801 798 796 792 790 788 785 782 780 777 774 772 769 766 763 760 757 755 752 750 748 746 742 738 734 732 732 731 730 729 729 730 730 729 729 728 727 727 727 726 726 727 726 726 726 726 726 726 727 728 729 730 730 730 730 730 730 730 731 732 732 732 732 732 732 733 733 734 735 735 736 737 738 739 740 741 741 742 742
813 811 808 806 804 802 800 797 794 791 788 786 783 780 778 775 772 770 767 764 761 758 756 753 750 747 744 742 740 736 731 728 728 727 726 725 726 726 725 725 724 724 723 723 722 722 721 722 722 721 721 721 721 722 722 723 724 725 725 725 725 726 725 726 727 728 728 728 728 729 729 729 730 732 733 734 735 736 736 737 738 739 740 740 740
811 809 807 805 802 800 798 795 792 789 786 784 781 778 776 773 771 769 766 762 760 757 754 751 749 746 742 740 738 734 729 726 724 723 722 722 722 722 721 720 720 719 719 718 718 717 717 717 717 716 716 715 715 716 718 719 720 720 720 720 721 721 721 721 723 724 724 725 725 726 726 726 727 728 730 731 733 733 734 734 735 737 738 738 738
810 807 805 803 801 798 796 793 790 787 784 782 779 776 774 771 769 767 764 761 758 755 752 749 746 744 741 738 735 732 728 725 722 720 719 719 718 717 717 717 716 715 714 714 713 713 712 712 712 711 711 710 710 711 713 714 715 716 716 716 716 716 716 718 719 720 720 721 722 722 722 722 723 724 726 728 729 730 731 731 733 734 735 735 735
808 806 803 801 799 796 794 791 789 786 783 780 777 774 772 769 767 765 763 760 757 754 751 748 744 741 739 736 733 731 727 725 722 720 718 716 715 714 713 713 712 712 711 710 709 709 708 707 707 707 707 705 705 707 708 709 710 711 711 712 712 711 712 715 715 716 717 718 718 719 719 719 720 721 722 724 725 726 727 728 730 731 731 732 733
806 804 801 799 796 794 792 789 786 784 781 778 775 773 770 768 765 763 761 758 755 753 750 747 744 740 737 734 732 730 727 725 722 720 717 716 714 712 711 710 709 708 708 707 706 705 705 704 703 704 703 702 702 703 703 704 705 705 706 707 707 707 709 711 712 713 714 714 715 715 715 716 716 718 719 720 721 723 724 725 726 727 728 729 730
803 801 799 796 794 791 789 787 784 781 779 776 773 771 768 766 763 761 759 756 754 751 748 745 742 739 737 734 731 729 727 724 722 719 718 716 714 712 711 709 708 707 706 705 704 703 702 701 700 700 700 700 699 699 699 699 700 700 701 701 702 704 706 706 707 709 710 711 711 712 712 712 713 715 716 717 718 719 720 721 722 723 725 725 726
801 799 796 794 791 789 786 784 782 779 776 774 771 768 766 764 761 759 757 754 752 749 746 744 741 738 735 733 731 729 726 724 722 720 718 716 714 713 711 709 708 706 705 703 702 701 699 698 697 697 696 696 696 695 695 695 695 695 695 696 697 700 702 702 704 705 706 707 708 708 708 709 710 712 713 714 715 716 717 717 718 719 720 721 722
799 796 794 792 789 786 784 781 779 777 774 772 770 767 764 762 760 757 755 753 750 748 745 742 740 737 734 732 730 728 726 724 722 720 718 716 714 712 711 709 707 706 704 702 701 699 697 696 695 694 693 693 692 692 692 691 690 690 690 691 693 695 697 699 700 701 702 703 704 704 705 706 707 708 709 710 711 712 713 714 714 716 717 719 720
796 794 792 789 786 783 781 779 776 774 772 770 768 765 763 761 758 756 754 752 749 747 744 742 739 736 733 731 729 728 726 724 722 720 718 716 714 712 710 708 706 705 703 701 699 698 696 694 692 691 690 689 689 688 688 688 687 686 685 686 688 691 693 695 696 697 698 699 700 701 701 702 703 704 705 706 707 709 710 711 712 713 715 716 718
794 791 789 786 784 781 778 776 774 772 771 769 767 764 762 760 757 755 753 751 748 746 743 741 739 736 733 731 729 727 725 723 721 719 717 715 713 711 709 707 705 704 702 700 698 696 694 692 690 689 687 686 685 685 684 684 684 683 682 683 685 688 690 691 693 694 694 695 696 697 697 698 699 700 701 703 705 706 707 709 710 711 712 714 715
791 789 786 783 781 779 776 774 771 770 769 767 765 763 761 759 757 754 752 750 748 745 743 740 738 735 733 731 729 726 725 723 721 718 716 714 712 709 707 705 704 702 701 698 696 694 692 690 688 687 685 684 683 682 681 681 681 681 680 680 682 684 686 688 689 690 691 691 692 693 694 695 696 697 699 701 702 703 704 705 706 707 709 710 712
788 786 784 781 778 777 775 773 770 769 767 765 763 762 760 758 756 754 752 749 746 744 742 740 737 734 732 730 728 726 724 722 720 718 716 713 711 708 706 704 702 700 699 696 694 692 690 688 686 685 683 682 681 680 679 678 678 678 678 678 679 680 683 684 685 686 687 688 689 689 690 692 693 695 696 697 698 699 700 701 703 704 706 708 709
786 784 781 779 777 775 774 772 770 767 765 763 762 760 758 757 755 753 751 749 746 743 741 739 736 734 732 730 728 726 724 722 720 718 716 713 710 708 706 704 701 699 697 695 692 690 688 686 684 683 681 680 679 678 677 676 676 676 676 676 676 677 679 680 682 683 684 685 686 686 688 689 690 691 692 693 694 695 696 698 699 701 703 705 706
784 782 779 778 775 773 772 771 769 767 764 762 760 759 757 756 754 752 750 748 746 743 741 738 736 734 732 731 729 726 724 722 720 718 715 713 710 708 705 703 700 698 696 694 691 689 687 686 684 683 681 680 679 677 676 675 674 674 674 675 675 675 676 677 678 680 680 681 682 683 684 685 686 687 688 689 690 692 693 695 696 698 700 702 703
781 779 778 776 774 771 770 769 768 766 764 761 758 756 755 754 753 751 749 747 746 743 741 738 736 734 732 731 729 727 725 722 719 717 714 712 709 706 704 702 699 697 695 692 690 689 687 686 685 684 683 682 680 679 678 676 675 674 674 674 674 674 674 675 675 676 676 677 678 679 680 681 682 683 684 686 687 689 690 692 694 695 697 699 701
779 777 776 774 772 770 769 767 766 765 763 761 758 755 752 751 751 750 749 747 744 743 740 738 736 734 732 730 728 726 724 721 718 716 713 710 708 705 702 700 699 697 694 692 690 689 688 688 687 686 684 683 682 681 679 678 677 675 674 673 673 673 673 673 673 673 673 674 674 675 676 677 678 679 681 682 684 686 687 689 691 693 694 696 697
777 775 773 772 770 769 767 766 765 764 762 760 758 755 752 750 747 747 747 746 744 742 740 738 736 734 732 730 728 725 723 720 718 715 712 709 707 704 701 700 698 696 694 692 692 691 691 690 689 688 686 685 684 682 681 679 678 677 676 675 674 673 672 672 671 671 671 671 672 672 673 674 675 677 678 679 681 683 685 687 688 690 692 693 695
774 773 771 769 768 767 766 764 764 763 762 760 758 756 754 751 747 745 744 743 743 741 739 738 736 733 731 729 727 725 723 720 717 714 711 709 706 703 701 699 698 696 694 693 693 693 693 692 691 690 689 687 685 684 682 681 679 678 677 676 675 674 673 671 670 670 669 669 670 670 670 671 672 673 675 677 678 680 682 684 686 688 690 692 694
772 771 769 768 767 765 764 763 762 762 761 760 758 756 754 752 749 747 744 742 740 739 737 736 735 733 731 729 727 725 723 720 717 714 712 708 705 703 701 699 697 696 696 695 696 696 695 694 693 692 690 689 687 685 684 682 681 679 677 676 675 674 672 671 670 669 668 668 668 668 668 668 669 670 672 674 676 678 680 681 684 686 688 689 691
769 768 768 767 766 764 763 762 761 761 760 759 758 756 753 751 750 748 746 744 742 739 737 735 734 732 731 728 726 724 722 720 717 715 712 708 705 703 700 698 698 698 697 697 698 698 697 696 695 694 692 691 689 687 685 684 682 680 679 677 675 674 672 671 670 669 668 668 667 667 667 667 667 668 669 671 674 676 677 679 681 683 685 687 689
767 766 766 765 764 763 762 761 760 760 759 758 757 755 753 751 750 748 747 746 744 742 739 736 734 733 731 728 726 724 721 719 718 715 713 710 707 704 701 701 702 702 701 701 700 700 699 698 697 696 694 692 691 689 687 685 683 682 680 679 677 675 674 672 671 670 669 668 667 666 666 666 666 666 667 669 671 673 674 677 679 680 682 684 686
765 764 764 763 763 762 760 759 758 758 758 757 756 755 753 751 749 748 747 746 744 742 740 737 734 731 729 727 725 723 721 720 718 716 714 712 709 706 705 706 705 705 704 703 702 701 701 700 699 697 696 694 692 690 688 686 685 683 681 680 678 677 675 674 673 671 670 668 667 666 665 665 665 665 666 667 669 671 673 674 676 678 680 682 684
762 762 762 762 762 760 759 757 757 756 756 756 755 754 752 750 749 747 746 745 744 743 741 738 736 733 730 728 726 724 722 719 717 715 713 712 710 710 709 709 708 707 706 705 704 703 702 701 699 698 697 695 693 691 689 687 685 684 682 681 679 678 676 675 673 672 670 669 668 667 666 665 665 665 665 666 667 669 671 672 674 676 679 680 682
760 759 760 760 760 759 757 756 754 754 754 754 754 753 751 750 748 747 746 744 744 742 741 739 737 735 733 730 728 725 722 719 718 717 716 715 714 713 712 711 710 709 708 707 705 704 703 701 700 699 697 695 694 692 690 688 686 684 683 681 680 678 677 675 674 673 671 670 669 668 667 666 666 665 666 666 667 668 669 671 673 674 676 678 680
757 757 757 758 758 757 755 754 753 752 752 752 752 752 751 749 748 746 745 744 743 742 741 740 738 736 734 732 730 728 725 723 722 721 720 718 717 716 714 713 712 711 710 708 707 705 703 702 700 699 697 696 694 692 691 689 687 685 684 682 681 679 678 676 675 673 672 671 670 669 668 667 667 666 667 667 668 668 669 671 672 673 675 677 679
755 754 754 755 755 755 754 752 751 750 750 750 750 750 750 749 748 746 745 744 742 741 741 740 739 737 736 734 732 730 728 726 725 724 722 721 719 718 716 715 714 713 711 710 708 706 704 702 701 699 697 696 694 693 691 689 688 686 684 683 682 680 679 677 676 674 673 672 671 670 669 668 668 667 667 668 668 669 670 671 672 674 675 677 679
752 752 751 752 752 752 752 751 749 749 748 748 748 749 749 748 747 746 744 743 742 741 740 740 739 738 736 734 733 731 729 728 726 725 723 722 721 719 718 717 715 714 712 711 709 707 705 703 702 700 698 696 695 693 691 690 688 687 685 684 682 681 680 678 677 675 674 673 672 671 670 670 669 668 668 668 668 669 670 671 672 674 675 677 678
749 749 749 749 750 750 750 749 748 747 746 745 746 747 747 747 746 745 744 743 741 740 740 739 738 737 736 734 733 731 729 728 727 726 724 723 721 720 719 717 716 714 713 712 710 708 706 705 703 701 699 698 696 695 693 691 690 688 687 685 683 682 681 679 678 676 675 675 674 673 672 671 670 670 669 669 669 670 670 671 673 674 675 677 678
747 747 746 746 747 748 749 748 747 746 745 744 744 745 745 746 745 744 743 742 741 740 739 738 737 737 735 734 733 731 730 729 727 726 725 724 722 721 719 717 716 714 713 712 711 709 707 706 704 702 700 699 697 696 695 693 691 690 688 686 684 683 681 680 678 677 676 675 675 674 673 672 671 671 670 670 670 671 671 672 673 674 675 677 679
744 744 744 744 745 746 747 747 746 745 744 743 743 743 743 744 743 743 742 741 740 739 738 737 737 736 735 734 733 731 730 729 728 727 725 724 723 721 720 718 716 715 713 712 711 709 708 706 705 703 701 700 698 697 696 694 693 691 690 688 686 684 683 681 679 678 677 676 675 675 674 673 672 672 671 671 671 672 672 673 674 675 676 677 679
741 741 741 741 742 743 744 745 744 743 743 742 741 741 741 742 742 742 741 740 739 739 738 736 736 735 734 733 733 732 731 729 728 727 726 724 723 722 720 718 717 715 714 712 711 710 708 707 705 704 702 701 699 698 696 695 694 692 691 689 688 686 685 683 681 680 678 677 676 675 675 674 673 673 672 672 673 673 673 674 675 676 677 678 679
738 739 739 739 739 741 742 743 743 742 741 741 740 739 739 739 740 740 739 739 738 737 737 736 735 734 733 732 732 731 730 729 728 727 726 724 723 721 720 718 717 715 714 713 711 710 709 707 706 705 703 702 700 699 697 696 695 693 692 690 689 687 686 685 683 681 680 678 677 676 676 676 675 674 674 674 674 674 675 675 676 677 678 679 681
735 736 737 737 737 738 739 740 741 741 740 739 739 738 737 738 738 738 738 738 737 736 735 735 734 733 732 731 731 730 730 729 728 727 726 724 723 721 719 718 716 715 714 713 711 710 709 707 706 705 704 702 701 699 698 697 695 694 692 691 690 689 688 686 684 683 681 680 679 678 678 677 677 677 676 676 676 676 676 677 677 678 679 680 682
732 733 734 734 735 735 736 738 739 739 738 738 737 736 736 735 736 736 737 736 735 734 734 733 732 732 731 730 729 729 728 727 727 726 725 724 722 721 719 718 716 715 714 712 711 710 709 708 706 705 704 702 701 700 699 697 696 695 693 692 691 690 689 687 686 684 683 682 681 680 680 679 679 679 679 679 678 678 678 679 679 680 681 682 683
729 731 731 732 732 733 734 735 737 737 737 736 736 735 734 733 734 734 735 734 734 733 732 732 731 730 730 729 728 728 727 726 726 725 724 723 722 721 719 718 716 715 713 712 711 710 709 708 706 705 704 702 701 700 699 698 696 695 694 693 692 691 690 688 687 686 684 684 683 682 682 681 681 681 681 681 681 681 681 681 681 682 683 683 685
726 728 729 729 730 730 731 733 734 734 734 734 734 733 732 731 731 732 733 732 732 731 730 730 730 729 728 728 727 726 725 725 724 724 723 722 721 720 719 718 716 715 713 712 711 710 709 708 706 705 704 703 701 700 699 698 697 696 695 694 693 692 690 689 688 687 686 685 684 684 683 683 683 683 683 683 683 683 683 683 683 684 684 685 686